owner,sensor,date,latitude,longitude,vertical_datum,mass_concentration_of_oxygen_in_sea_water,qcFlag 
SCCF RECON,ioos:station:SCCF:13:1,2019-05-01T04:00:00Z,26.5255,-82.0032,2.41,6.88,11111222 
SCCF RECON,ioos:station:SCCF:13:1,2019-05-01T05:00:00Z,26.5255,-82.0032,2.369,6.88,11111222 
SCCF RECON,ioos:station:SCCF:13:1,2019-05-01T06:00:00Z,26.5255,-82.0032,2.28,6.86,11111222 
SCCF RECON,ioos:station:SCCF:13:1,2019-05-01T07:00:00Z,26.5255,-82.0032,2.19,6.72,11111222 
SCCF RECON,ioos:station:SCCF:13:1,2019-05-01T08:00:00Z,26.5255,-82.0032,2.12,6.4,11111222 
SCCF RECON,ioos:station:SCCF:13:1,2019-05-01T09:00:00Z,26.5255,-82.0032,2.061,6.57,11111222 
SCCF RECON,ioos:station:SCCF:13:1,2019-05-01T10:00:00Z,26.5255,-82.0032,2.02,6.53,11111222 
SCCF RECON,ioos:station:SCCF:13:1,2019-05-01T11:00:00Z,26.5255,-82.0032,2.02,6.55,11111222 
SCCF RECON,ioos:station:SCCF:13:1,2019-05-01T12:00:00Z,26.5255,-82.0032,2.11,6.56,11111222 
SCCF RECON,ioos:station:SCCF:13:1,2019-05-01T13:00:00Z,26.5255,-82.0032,2.23,6.27,11111222 
SCCF RECON,ioos:station:SCCF:13:1,2019-05-01T14:00:00Z,26.5255,-82.0032,2.311,6.2,11111222 
SCCF RECON,ioos:station:SCCF:13:1,2019-05-01T15:00:00Z,26.5255,-82.0032,2.374,6.52,11111222 
SCCF RECON,ioos:station:SCCF:13:1,2019-05-01T16:00:00Z,26.5255,-82.0032,2.4,6.6,11111222 
SCCF RECON,ioos:station:SCCF:13:1,2019-05-01T17:00:00Z,26.5255,-82.0032,2.396,6.75,11111222 
SCCF RECON,ioos:station:SCCF:13:1,2019-05-01T18:00:00Z,26.5255,-82.0032,2.33,6.9,11111222 
SCCF RECON,ioos:station:SCCF:13:1,2019-05-01T19:00:00Z,26.5255,-82.0032,2.236,7.28,11111222 
SCCF RECON,ioos:station:SCCF:13:1,2019-05-01T20:00:00Z,26.5255,-82.0032,2.177,7.09,11111222 
SCCF RECON,ioos:station:SCCF:13:1,2019-05-01T21:00:00Z,26.5255,-82.0032,2.08,7.34,11111222 
SCCF RECON,ioos:station:SCCF:13:1,2019-05-01T22:00:00Z,26.5255,-82.0032,2.03,7.53,11111222 
SCCF RECON,ioos:station:SCCF:13:1,2019-05-01T23:00:00Z,26.5255,-82.0032,2.0,7.39,11111222 
SCCF RECON,ioos:station:SCCF:13:1,2019-05-02T04:00:00Z,26.5255,-82.0032,2.34,6.86,11111222 
SCCF RECON,ioos:station:SCCF:13:1,2019-05-02T05:00:00Z,26.5255,-82.0032,2.347,6.76,11111222 
SCCF RECON,ioos:station:SCCF:13:1,2019-05-02T06:00:00Z,26.5255,-82.0032,2.3,6.73,11111222 
SCCF RECON,ioos:station:SCCF:13:1,2019-05-02T07:00:00Z,26.5255,-82.0032,2.23,6.54,11111222 
SCCF RECON,ioos:station:SCCF:13:1,2019-05-02T08:00:00Z,26.5255,-82.0032,2.15,6.38,11111222 
SCCF RECON,ioos:station:SCCF:13:1,2019-05-02T09:00:00Z,26.5255,-82.0032,2.08,6.3,11111222 
SCCF RECON,ioos:station:SCCF:13:1,2019-05-02T10:00:00Z,26.5255,-82.0032,2.03,6.37,11111222 
SCCF RECON,ioos:station:SCCF:13:1,2019-05-02T11:00:00Z,26.5255,-82.0032,2.03,6.43,11111222 
SCCF RECON,ioos:station:SCCF:13:1,2019-05-02T12:00:00Z,26.5255,-82.0032,2.092,6.53,11111222 
SCCF RECON,ioos:station:SCCF:13:1,2019-05-02T13:00:00Z,26.5255,-82.0032,2.217,6.23,11111222 
SCCF RECON,ioos:station:SCCF:13:1,2019-05-02T14:00:00Z,26.5255,-82.0032,2.315,6.16,11111222 
SCCF RECON,ioos:station:SCCF:13:1,2019-05-02T15:00:00Z,26.5255,-82.0032,2.39,6.48,11111222 
SCCF RECON,ioos:station:SCCF:13:1,2019-05-02T16:00:00Z,26.5255,-82.0032,2.45,6.47,11111222 
SCCF RECON,ioos:station:SCCF:13:1,2019-05-02T17:00:00Z,26.5255,-82.0032,2.474,6.75,11111222 
SCCF RECON,ioos:station:SCCF:13:1,2019-05-02T18:00:00Z,26.5255,-82.0032,2.45,7.18,11111222 
SCCF RECON,ioos:station:SCCF:13:1,2019-05-02T19:00:00Z,26.5255,-82.0032,2.36,7.48,11111222 
SCCF RECON,ioos:station:SCCF:13:1,2019-05-02T20:00:00Z,26.5255,-82.0032,2.27,7.57,11111222 
SCCF RECON,ioos:station:SCCF:13:1,2019-05-02T21:00:00Z,26.5255,-82.0032,2.18,7.61,11111222 
SCCF RECON,ioos:station:SCCF:13:1,2019-05-02T22:00:00Z,26.5255,-82.0032,2.12,7.62,11111222 
SCCF RECON,ioos:station:SCCF:13:1,2019-05-02T23:00:00Z,26.5255,-82.0032,2.06,7.51,11111222 
SCCF RECON,ioos:station:SCCF:13:1,2019-05-03T04:00:00Z,26.5255,-82.0032,2.38,6.96,11111222 
SCCF RECON,ioos:station:SCCF:13:1,2019-05-03T05:00:00Z,26.5255,-82.0032,2.43,6.96,11111222 
SCCF RECON,ioos:station:SCCF:13:1,2019-05-03T06:00:00Z,26.5255,-82.0032,2.45,6.78,11111222 
SCCF RECON,ioos:station:SCCF:13:1,2019-05-03T07:00:00Z,26.5255,-82.0032,2.38,6.66,11111222 
SCCF RECON,ioos:station:SCCF:13:1,2019-05-03T08:00:00Z,26.5255,-82.0032,2.33,6.57,11111222 
SCCF RECON,ioos:station:SCCF:13:1,2019-05-03T09:00:00Z,26.5255,-82.0032,2.299,6.42,11111222 
SCCF RECON,ioos:station:SCCF:13:1,2019-05-03T10:00:00Z,26.5255,-82.0032,2.21,6.21,11111222 
SCCF RECON,ioos:station:SCCF:13:1,2019-05-03T11:00:00Z,26.5255,-82.0032,2.15,6.07,11111222 
SCCF RECON,ioos:station:SCCF:13:1,2019-05-03T12:00:00Z,26.5255,-82.0032,2.16,6.26,11111222 
SCCF RECON,ioos:station:SCCF:13:1,2019-05-03T13:00:00Z,26.5255,-82.0032,2.26,6.28,11111222 
SCCF RECON,ioos:station:SCCF:13:1,2019-05-03T14:00:00Z,26.5255,-82.0032,2.39,5.95,11111222 
SCCF RECON,ioos:station:SCCF:13:1,2019-05-03T15:00:00Z,26.5255,-82.0032,2.45,6.18,11111222 
SCCF RECON,ioos:station:SCCF:13:1,2019-05-03T16:00:00Z,26.5255,-82.0032,2.5,6.7,11111222 
SCCF RECON,ioos:station:SCCF:13:1,2019-05-03T17:00:00Z,26.5255,-82.0032,2.54,6.9,11111222 
SCCF RECON,ioos:station:SCCF:13:1,2019-05-03T18:00:00Z,26.5255,-82.0032,2.53,7.08,11111222 
SCCF RECON,ioos:station:SCCF:13:1,2019-05-03T19:00:00Z,26.5255,-82.0032,2.446,7.38,11111222 
SCCF RECON,ioos:station:SCCF:13:1,2019-05-03T20:00:00Z,26.5255,-82.0032,2.35,7.45,11111222 
SCCF RECON,ioos:station:SCCF:13:1,2019-05-03T21:00:00Z,26.5255,-82.0032,2.241,7.42,11111222 
SCCF RECON,ioos:station:SCCF:13:1,2019-05-03T22:00:00Z,26.5255,-82.0032,2.166,7.44,11111222 
SCCF RECON,ioos:station:SCCF:13:1,2019-05-03T23:00:00Z,26.5255,-82.0032,2.095,7.36,11111222 
SCCF RECON,ioos:station:SCCF:13:1,2019-05-04T04:00:00Z,26.5255,-82.0032,2.33,6.5,11111222 
SCCF RECON,ioos:station:SCCF:13:1,2019-05-04T05:00:00Z,26.5255,-82.0032,2.39,6.63,11111222 
SCCF RECON,ioos:station:SCCF:13:1,2019-05-04T06:00:00Z,26.5255,-82.0032,2.43,6.5,11111222 
SCCF RECON,ioos:station:SCCF:13:1,2019-05-04T07:00:00Z,26.5255,-82.0032,2.4,6.46,11111222 
SCCF RECON,ioos:station:SCCF:13:1,2019-05-04T08:00:00Z,26.5255,-82.0032,2.305,6.35,11111222 
SCCF RECON,ioos:station:SCCF:13:1,2019-05-04T09:00:00Z,26.5255,-82.0032,2.23,6.27,11111222 
SCCF RECON,ioos:station:SCCF:13:1,2019-05-04T10:00:00Z,26.5255,-82.0032,2.19,6.01,11111222 
SCCF RECON,ioos:station:SCCF:13:1,2019-05-04T11:00:00Z,26.5255,-82.0032,2.16,5.98,11111222 
SCCF RECON,ioos:station:SCCF:13:1,2019-05-04T12:00:00Z,26.5255,-82.0032,2.13,5.98,11111222 
SCCF RECON,ioos:station:SCCF:13:1,2019-05-04T13:00:00Z,26.5255,-82.0032,2.171,6.14,11111222 
SCCF RECON,ioos:station:SCCF:13:1,2019-05-04T14:00:00Z,26.5255,-82.0032,2.273,5.94,11111222 
SCCF RECON,ioos:station:SCCF:13:1,2019-05-04T15:00:00Z,26.5255,-82.0032,2.367,6.01,11111222 
SCCF RECON,ioos:station:SCCF:13:1,2019-05-04T16:00:00Z,26.5255,-82.0032,2.45,6.46,11111222 
SCCF RECON,ioos:station:SCCF:13:1,2019-05-04T17:00:00Z,26.5255,-82.0032,2.52,6.93,11111222 
SCCF RECON,ioos:station:SCCF:13:1,2019-05-04T18:00:00Z,26.5255,-82.0032,2.553,7.08,11111222 
SCCF RECON,ioos:station:SCCF:13:1,2019-05-04T19:00:00Z,26.5255,-82.0032,2.507,7.34,11111222 
SCCF RECON,ioos:station:SCCF:13:1,2019-05-04T20:00:00Z,26.5255,-82.0032,2.37,7.51,11111222 
SCCF RECON,ioos:station:SCCF:13:1,2019-05-04T21:00:00Z,26.5255,-82.0032,2.258,7.6,11111222 
SCCF RECON,ioos:station:SCCF:13:1,2019-05-04T22:00:00Z,26.5255,-82.0032,2.171,7.45,11111222 
SCCF RECON,ioos:station:SCCF:13:1,2019-05-04T23:00:00Z,26.5255,-82.0032,2.1,7.3,11111222 
SCCF RECON,ioos:station:SCCF:13:1,2019-05-05T04:00:00Z,26.5255,-82.0032,2.29,5.86,11111222 
SCCF RECON,ioos:station:SCCF:13:1,2019-05-05T05:00:00Z,26.5255,-82.0032,2.36,6.31,11111222 
SCCF RECON,ioos:station:SCCF:13:1,2019-05-05T06:00:00Z,26.5255,-82.0032,2.42,6.46,11111222 
SCCF RECON,ioos:station:SCCF:13:1,2019-05-05T07:00:00Z,26.5255,-82.0032,2.43,6.4,11111222 
SCCF RECON,ioos:station:SCCF:13:1,2019-05-05T08:00:00Z,26.5255,-82.0032,2.41,6.33,11111222 
SCCF RECON,ioos:station:SCCF:13:1,2019-05-05T09:00:00Z,26.5255,-82.0032,2.36,6.17,11111222 
SCCF RECON,ioos:station:SCCF:13:1,2019-05-05T10:00:00Z,26.5255,-82.0032,2.303,6.11,11111222 
SCCF RECON,ioos:station:SCCF:13:1,2019-05-05T11:00:00Z,26.5255,-82.0032,2.25,5.98,11111222 
SCCF RECON,ioos:station:SCCF:13:1,2019-05-05T12:00:00Z,26.5255,-82.0032,2.209,5.85,11111222 
SCCF RECON,ioos:station:SCCF:13:1,2019-05-05T13:00:00Z,26.5255,-82.0032,2.2,5.91,11111222 
SCCF RECON,ioos:station:SCCF:13:1,2019-05-05T14:00:00Z,26.5255,-82.0032,2.311,5.95,11111222 
SCCF RECON,ioos:station:SCCF:13:1,2019-05-05T15:00:00Z,26.5255,-82.0032,2.42,5.94,11111222 
SCCF RECON,ioos:station:SCCF:13:1,2019-05-05T16:00:00Z,26.5255,-82.0032,2.514,6.42,11111222 
SCCF RECON,ioos:station:SCCF:13:1,2019-05-05T17:00:00Z,26.5255,-82.0032,2.57,6.82,11111222 
SCCF RECON,ioos:station:SCCF:13:1,2019-05-05T18:00:00Z,26.5255,-82.0032,2.609,6.91,11111222 
SCCF RECON,ioos:station:SCCF:13:1,2019-05-05T19:00:00Z,26.5255,-82.0032,2.614,6.69,11111222 
SCCF RECON,ioos:station:SCCF:13:1,2019-05-05T20:00:00Z,26.5255,-82.0032,2.53,6.86,11111222 
SCCF RECON,ioos:station:SCCF:13:1,2019-05-05T21:00:00Z,26.5255,-82.0032,2.388,7.04,11111222 
SCCF RECON,ioos:station:SCCF:13:1,2019-05-05T22:00:00Z,26.5255,-82.0032,2.27,7.09,11111222 
SCCF RECON,ioos:station:SCCF:13:1,2019-05-05T23:00:00Z,26.5255,-82.0032,2.183,7.07,11111222 
SCCF RECON,ioos:station:SCCF:13:1,2019-05-06T04:00:00Z,26.5255,-82.0032,2.197,6.55,11111222 
SCCF RECON,ioos:station:SCCF:13:1,2019-05-06T05:00:00Z,26.5255,-82.0032,2.25,6.27,11111222 
SCCF RECON,ioos:station:SCCF:13:1,2019-05-06T06:00:00Z,26.5255,-82.0032,2.317,5.91,11111222 
SCCF RECON,ioos:station:SCCF:13:1,2019-05-06T07:00:00Z,26.5255,-82.0032,2.39,6.08,11111222 
SCCF RECON,ioos:station:SCCF:13:1,2019-05-06T08:00:00Z,26.5255,-82.0032,2.421,5.94,11111222 
SCCF RECON,ioos:station:SCCF:13:1,2019-05-06T09:00:00Z,26.5255,-82.0032,2.39,5.9,11111222 
SCCF RECON,ioos:station:SCCF:13:1,2019-05-06T10:00:00Z,26.5255,-82.0032,2.35,5.83,11111222 
SCCF RECON,ioos:station:SCCF:13:1,2019-05-06T11:00:00Z,26.5255,-82.0032,2.26,5.76,11111222 
SCCF RECON,ioos:station:SCCF:13:1,2019-05-06T12:00:00Z,26.5255,-82.0032,2.231,5.55,11111222 
SCCF RECON,ioos:station:SCCF:13:1,2019-05-06T13:00:00Z,26.5255,-82.0032,2.21,5.58,11111222 
SCCF RECON,ioos:station:SCCF:13:1,2019-05-06T14:00:00Z,26.5255,-82.0032,2.32,5.53,11111222 
SCCF RECON,ioos:station:SCCF:13:1,2019-05-06T15:00:00Z,26.5255,-82.0032,2.44,5.69,11111222 
SCCF RECON,ioos:station:SCCF:13:1,2019-05-06T16:00:00Z,26.5255,-82.0032,2.519,6.32,11111222 
SCCF RECON,ioos:station:SCCF:13:1,2019-05-06T17:00:00Z,26.5255,-82.0032,2.576,6.63,11111222 
SCCF RECON,ioos:station:SCCF:13:1,2019-05-06T18:00:00Z,26.5255,-82.0032,2.62,6.88,11111222 
SCCF RECON,ioos:station:SCCF:13:1,2019-05-06T19:00:00Z,26.5255,-82.0032,2.601,7.27,11111222 
SCCF RECON,ioos:station:SCCF:13:1,2019-05-06T20:00:00Z,26.5255,-82.0032,2.52,7.32,11111222 
SCCF RECON,ioos:station:SCCF:13:1,2019-05-06T21:00:00Z,26.5255,-82.0032,2.424,7.45,11111222 
SCCF RECON,ioos:station:SCCF:13:1,2019-05-06T22:00:00Z,26.5255,-82.0032,2.32,7.19,11111222 
SCCF RECON,ioos:station:SCCF:13:1,2019-05-06T23:00:00Z,26.5255,-82.0032,2.23,7.14,11111222 
SCCF RECON,ioos:station:SCCF:13:1,2019-05-07T04:00:00Z,26.5255,-82.0032,2.055,6.34,11111222 
SCCF RECON,ioos:station:SCCF:13:1,2019-05-07T05:00:00Z,26.5255,-82.0032,2.18,6.39,11111222 
SCCF RECON,ioos:station:SCCF:13:1,2019-05-07T06:00:00Z,26.5255,-82.0032,2.27,5.37,11111222 
SCCF RECON,ioos:station:SCCF:13:1,2019-05-07T07:00:00Z,26.5255,-82.0032,2.33,5.88,11111222 
SCCF RECON,ioos:station:SCCF:13:1,2019-05-07T08:00:00Z,26.5255,-82.0032,2.36,5.86,11111222 
SCCF RECON,ioos:station:SCCF:13:1,2019-05-07T09:00:00Z,26.5255,-82.0032,2.36,5.71,11111222 
SCCF RECON,ioos:station:SCCF:13:1,2019-05-07T10:00:00Z,26.5255,-82.0032,2.31,5.8,11111222 
SCCF RECON,ioos:station:SCCF:13:1,2019-05-07T11:00:00Z,26.5255,-82.0032,2.28,5.84,11111222 
SCCF RECON,ioos:station:SCCF:13:1,2019-05-07T12:00:00Z,26.5255,-82.0032,2.25,5.59,11111222 
SCCF RECON,ioos:station:SCCF:13:1,2019-05-07T13:00:00Z,26.5255,-82.0032,2.25,5.32,11111222 
SCCF RECON,ioos:station:SCCF:13:1,2019-05-07T14:00:00Z,26.5255,-82.0032,2.26,5.32,11111222 
SCCF RECON,ioos:station:SCCF:13:1,2019-05-07T15:00:00Z,26.5255,-82.0032,2.321,5.15,11111222 
SCCF RECON,ioos:station:SCCF:13:1,2019-05-07T16:00:00Z,26.5255,-82.0032,2.405,5.93,11111222 
SCCF RECON,ioos:station:SCCF:13:1,2019-05-07T17:00:00Z,26.5255,-82.0032,2.49,6.4,11111222 
SCCF RECON,ioos:station:SCCF:13:1,2019-05-07T18:00:00Z,26.5255,-82.0032,2.533,7.0,11111222 
SCCF RECON,ioos:station:SCCF:13:1,2019-05-07T19:00:00Z,26.5255,-82.0032,2.55,7.16,11111222 
SCCF RECON,ioos:station:SCCF:13:1,2019-05-07T20:00:00Z,26.5255,-82.0032,2.525,7.56,11111222 
SCCF RECON,ioos:station:SCCF:13:1,2019-05-07T21:00:00Z,26.5255,-82.0032,2.44,7.43,11111222 
SCCF RECON,ioos:station:SCCF:13:1,2019-05-07T22:00:00Z,26.5255,-82.0032,2.339,7.46,11111222 
SCCF RECON,ioos:station:SCCF:13:1,2019-05-07T23:00:00Z,26.5255,-82.0032,2.24,7.33,11111222 
SCCF RECON,ioos:station:SCCF:13:1,2019-05-08T04:00:00Z,26.5255,-82.0032,1.946,6.59,11111222 
SCCF RECON,ioos:station:SCCF:13:1,2019-05-08T05:00:00Z,26.5255,-82.0032,2.068,6.5,11111222 
SCCF RECON,ioos:station:SCCF:13:1,2019-05-08T06:00:00Z,26.5255,-82.0032,2.19,6.19,11111222 
SCCF RECON,ioos:station:SCCF:13:1,2019-05-08T07:00:00Z,26.5255,-82.0032,2.25,6.1,11111222 
SCCF RECON,ioos:station:SCCF:13:1,2019-05-08T08:00:00Z,26.5255,-82.0032,2.29,6.13,11111222 
SCCF RECON,ioos:station:SCCF:13:1,2019-05-08T09:00:00Z,26.5255,-82.0032,2.33,5.92,11111222 
SCCF RECON,ioos:station:SCCF:13:1,2019-05-08T11:00:00Z,26.5255,-82.0032,2.34,5.89,11111222 
SCCF RECON,ioos:station:SCCF:13:1,2019-05-08T12:00:00Z,26.5255,-82.0032,2.314,5.89,11111222 
SCCF RECON,ioos:station:SCCF:13:1,2019-05-08T13:00:00Z,26.5255,-82.0032,2.28,5.96,11111222 
SCCF RECON,ioos:station:SCCF:13:1,2019-05-08T14:00:00Z,26.5255,-82.0032,2.28,5.93,11111222 
SCCF RECON,ioos:station:SCCF:13:1,2019-05-08T15:00:00Z,26.5255,-82.0032,2.32,6.11,11111222 
SCCF RECON,ioos:station:SCCF:13:1,2019-05-08T16:00:00Z,26.5255,-82.0032,2.409,6.53,11111222 
SCCF RECON,ioos:station:SCCF:13:1,2019-05-08T18:00:00Z,26.5255,-82.0032,2.547,7.35,11111222 
SCCF RECON,ioos:station:SCCF:13:1,2019-05-08T19:00:00Z,26.5255,-82.0032,2.58,7.08,11111222 
SCCF RECON,ioos:station:SCCF:13:1,2019-05-08T20:00:00Z,26.5255,-82.0032,2.582,7.58,11111222 
SCCF RECON,ioos:station:SCCF:13:1,2019-05-08T21:00:00Z,26.5255,-82.0032,2.552,7.63,11111222 
SCCF RECON,ioos:station:SCCF:13:1,2019-05-08T22:00:00Z,26.5255,-82.0032,2.483,7.51,11111222 
SCCF RECON,ioos:station:SCCF:13:1,2019-05-08T23:00:00Z,26.5255,-82.0032,2.399,7.15,11111222 
SCCF RECON,ioos:station:SCCF:13:1,2019-05-09T04:00:00Z,26.5255,-82.0032,1.96,6.57,11111222 
SCCF RECON,ioos:station:SCCF:13:1,2019-05-09T05:00:00Z,26.5255,-82.0032,2.01,6.44,11111222 
SCCF RECON,ioos:station:SCCF:13:1,2019-05-09T06:00:00Z,26.5255,-82.0032,2.13,6.41,11111222 
SCCF RECON,ioos:station:SCCF:13:1,2019-05-09T07:00:00Z,26.5255,-82.0032,2.2,6.18,11111222 
SCCF RECON,ioos:station:SCCF:13:1,2019-05-09T08:00:00Z,26.5255,-82.0032,2.258,5.73,11111222 
SCCF RECON,ioos:station:SCCF:13:1,2019-05-09T09:00:00Z,26.5255,-82.0032,2.32,5.98,11111222 
SCCF RECON,ioos:station:SCCF:13:1,2019-05-09T10:00:00Z,26.5255,-82.0032,2.364,5.75,11111222 
SCCF RECON,ioos:station:SCCF:13:1,2019-05-09T11:00:00Z,26.5255,-82.0032,2.387,5.64,11111222 
SCCF RECON,ioos:station:SCCF:13:1,2019-05-09T12:00:00Z,26.5255,-82.0032,2.38,5.81,11111222 
SCCF RECON,ioos:station:SCCF:13:1,2019-05-09T13:00:00Z,26.5255,-82.0032,2.35,5.98,11111222 
SCCF RECON,ioos:station:SCCF:13:1,2019-05-09T14:00:00Z,26.5255,-82.0032,2.34,5.9,11111222 
SCCF RECON,ioos:station:SCCF:13:1,2019-05-09T15:00:00Z,26.5255,-82.0032,2.35,6.24,11111222 
SCCF RECON,ioos:station:SCCF:13:1,2019-05-09T16:00:00Z,26.5255,-82.0032,2.403,6.43,11111222 
SCCF RECON,ioos:station:SCCF:13:1,2019-05-09T17:00:00Z,26.5255,-82.0032,2.46,6.93,11111222 
SCCF RECON,ioos:station:SCCF:13:1,2019-05-09T18:00:00Z,26.5255,-82.0032,2.517,7.46,11111222 
SCCF RECON,ioos:station:SCCF:13:1,2019-05-09T19:00:00Z,26.5255,-82.0032,2.56,7.31,11111222 
SCCF RECON,ioos:station:SCCF:13:1,2019-05-09T20:00:00Z,26.5255,-82.0032,2.601,7.07,11111222 
SCCF RECON,ioos:station:SCCF:13:1,2019-05-09T21:00:00Z,26.5255,-82.0032,2.62,7.24,11111222 
SCCF RECON,ioos:station:SCCF:13:1,2019-05-09T22:00:00Z,26.5255,-82.0032,2.609,7.05,11111222 
SCCF RECON,ioos:station:SCCF:13:1,2019-05-09T23:00:00Z,26.5255,-82.0032,2.489,6.8,11111222 
SCCF RECON,ioos:station:SCCF:13:1,2019-05-10T04:00:00Z,26.5255,-82.0032,2.04,6.26,11111222 
SCCF RECON,ioos:station:SCCF:13:1,2019-05-10T05:00:00Z,26.5255,-82.0032,1.98,6.13,11111222 
SCCF RECON,ioos:station:SCCF:13:1,2019-05-10T06:00:00Z,26.5255,-82.0032,2.01,6.06,11111222 
SCCF RECON,ioos:station:SCCF:13:1,2019-05-10T07:00:00Z,26.5255,-82.0032,2.1,6.02,11111222 
SCCF RECON,ioos:station:SCCF:13:1,2019-05-10T08:00:00Z,26.5255,-82.0032,2.18,5.97,11111222 
SCCF RECON,ioos:station:SCCF:13:1,2019-05-10T09:00:00Z,26.5255,-82.0032,2.21,5.28,11111222 
SCCF RECON,ioos:station:SCCF:13:1,2019-05-10T10:00:00Z,26.5255,-82.0032,2.26,5.52,11111222 
SCCF RECON,ioos:station:SCCF:13:1,2019-05-10T11:00:00Z,26.5255,-82.0032,2.322,5.61,11111222 
SCCF RECON,ioos:station:SCCF:13:1,2019-05-10T12:00:00Z,26.5255,-82.0032,2.35,5.47,11111222 
SCCF RECON,ioos:station:SCCF:13:1,2019-05-10T13:00:00Z,26.5255,-82.0032,2.351,5.5,11111222 
SCCF RECON,ioos:station:SCCF:13:1,2019-05-10T14:00:00Z,26.5255,-82.0032,2.349,5.78,11111222 
SCCF RECON,ioos:station:SCCF:13:1,2019-05-10T15:00:00Z,26.5255,-82.0032,2.378,6.14,11111222 
SCCF RECON,ioos:station:SCCF:13:1,2019-05-10T16:00:00Z,26.5255,-82.0032,2.419,6.53,11111222 
SCCF RECON,ioos:station:SCCF:13:1,2019-05-10T17:00:00Z,26.5255,-82.0032,2.449,7.06,11111222 
SCCF RECON,ioos:station:SCCF:13:1,2019-05-10T18:00:00Z,26.5255,-82.0032,2.48,7.52,11111222 
SCCF RECON,ioos:station:SCCF:13:1,2019-05-10T19:00:00Z,26.5255,-82.0032,2.53,7.37,11111222 
SCCF RECON,ioos:station:SCCF:13:1,2019-05-10T20:00:00Z,26.5255,-82.0032,2.542,7.51,11111222 
SCCF RECON,ioos:station:SCCF:13:1,2019-05-10T21:00:00Z,26.5255,-82.0032,2.58,7.58,11111222 
SCCF RECON,ioos:station:SCCF:13:1,2019-05-10T22:00:00Z,26.5255,-82.0032,2.59,7.53,11111222 
SCCF RECON,ioos:station:SCCF:13:1,2019-05-10T23:00:00Z,26.5255,-82.0032,2.587,7.34,11111222 
SCCF RECON,ioos:station:SCCF:13:1,2019-05-11T04:00:00Z,26.5255,-82.0032,2.15,6.69,11111222 
SCCF RECON,ioos:station:SCCF:13:1,2019-05-11T05:00:00Z,26.5255,-82.0032,2.054,6.5,11111222 
SCCF RECON,ioos:station:SCCF:13:1,2019-05-11T06:00:00Z,26.5255,-82.0032,2.0,6.37,11111222 
SCCF RECON,ioos:station:SCCF:13:1,2019-05-11T07:00:00Z,26.5255,-82.0032,2.018,6.3,11111222 
SCCF RECON,ioos:station:SCCF:13:1,2019-05-11T08:00:00Z,26.5255,-82.0032,2.09,6.28,11111222 
SCCF RECON,ioos:station:SCCF:13:1,2019-05-11T09:00:00Z,26.5255,-82.0032,2.17,6.23,11111222 
SCCF RECON,ioos:station:SCCF:13:1,2019-05-11T10:00:00Z,26.5255,-82.0032,2.26,5.61,11111222 
SCCF RECON,ioos:station:SCCF:13:1,2019-05-11T11:00:00Z,26.5255,-82.0032,2.311,5.71,11111222 
SCCF RECON,ioos:station:SCCF:13:1,2019-05-11T12:00:00Z,26.5255,-82.0032,2.361,5.78,11111222 
SCCF RECON,ioos:station:SCCF:13:1,2019-05-11T13:00:00Z,26.5255,-82.0032,2.377,5.74,11111222 
SCCF RECON,ioos:station:SCCF:13:1,2019-05-13T14:00:00Z,26.5255,-82.0032,2.511,6.03,11111222 
SCCF RECON,ioos:station:SCCF:13:1,2019-05-13T15:00:00Z,26.5255,-82.0032,2.54,6.35,11111222 
SCCF RECON,ioos:station:SCCF:13:1,2019-05-13T16:00:00Z,26.5255,-82.0032,2.5,6.65,11111222 
SCCF RECON,ioos:station:SCCF:13:1,2019-05-13T17:00:00Z,26.5255,-82.0032,2.43,7.08,11111222 
SCCF RECON,ioos:station:SCCF:13:1,2019-05-13T18:00:00Z,26.5255,-82.0032,2.383,6.92,11111222 
SCCF RECON,ioos:station:SCCF:13:1,2019-05-13T19:00:00Z,26.5255,-82.0032,2.33,7.44,11111222 
SCCF RECON,ioos:station:SCCF:13:1,2019-05-13T20:00:00Z,26.5255,-82.0032,2.312,7.26,11111222 
SCCF RECON,ioos:station:SCCF:13:1,2019-05-13T21:00:00Z,26.5255,-82.0032,2.309,7.17,11111222 
SCCF RECON,ioos:station:SCCF:13:1,2019-05-13T22:00:00Z,26.5255,-82.0032,2.332,7.35,11111222 
SCCF RECON,ioos:station:SCCF:13:1,2019-05-13T23:00:00Z,26.5255,-82.0032,2.37,7.32,11111222 
SCCF RECON,ioos:station:SCCF:13:1,2019-05-14T04:00:00Z,26.5255,-82.0032,2.48,6.66,11111222 
SCCF RECON,ioos:station:SCCF:13:1,2019-05-14T06:00:00Z,26.5255,-82.0032,2.236,5.92,11111222 
SCCF RECON,ioos:station:SCCF:13:1,2019-05-14T07:00:00Z,26.5255,-82.0032,2.15,5.88,11111222 
SCCF RECON,ioos:station:SCCF:13:1,2019-05-14T08:00:00Z,26.5255,-82.0032,2.08,5.94,11111222 
SCCF RECON,ioos:station:SCCF:13:1,2019-05-14T09:00:00Z,26.5255,-82.0032,2.07,6.02,11111222 
SCCF RECON,ioos:station:SCCF:13:1,2019-05-14T10:00:00Z,26.5255,-82.0032,2.117,6.04,11111222 
SCCF RECON,ioos:station:SCCF:13:1,2019-05-14T12:00:00Z,26.5255,-82.0032,2.32,5.12,11111222 
SCCF RECON,ioos:station:SCCF:13:1,2019-05-14T13:00:00Z,26.5255,-82.0032,2.38,5.32,11111222 
SCCF RECON,ioos:station:SCCF:13:1,2019-05-14T14:00:00Z,26.5255,-82.0032,2.475,5.45,11111222 
SCCF RECON,ioos:station:SCCF:13:1,2019-05-14T15:00:00Z,26.5255,-82.0032,2.543,5.63,11111222 
SCCF RECON,ioos:station:SCCF:13:1,2019-05-14T16:00:00Z,26.5255,-82.0032,2.54,5.92,11111222 
SCCF RECON,ioos:station:SCCF:13:1,2019-05-14T17:00:00Z,26.5255,-82.0032,2.468,6.28,11111222 
SCCF RECON,ioos:station:SCCF:13:1,2019-05-14T18:00:00Z,26.5255,-82.0032,2.361,6.29,11111222 
SCCF RECON,ioos:station:SCCF:13:1,2019-05-14T19:00:00Z,26.5255,-82.0032,2.29,6.54,11111222 
SCCF RECON,ioos:station:SCCF:13:1,2019-05-14T20:00:00Z,26.5255,-82.0032,2.231,6.43,11111222 
SCCF RECON,ioos:station:SCCF:13:1,2019-05-14T21:00:00Z,26.5255,-82.0032,2.181,6.47,11111222 
SCCF RECON,ioos:station:SCCF:13:1,2019-05-14T22:00:00Z,26.5255,-82.0032,2.15,6.3,11111222 
SCCF RECON,ioos:station:SCCF:13:1,2019-05-14T23:00:00Z,26.5255,-82.0032,2.24,6.24,11111222 
SCCF RECON,ioos:station:SCCF:13:1,2019-05-15T04:00:00Z,26.5255,-82.0032,2.499,5.98,11111222 
SCCF RECON,ioos:station:SCCF:13:1,2019-05-15T05:00:00Z,26.5255,-82.0032,2.41,5.94,11111222 
SCCF RECON,ioos:station:SCCF:13:1,2019-05-15T06:00:00Z,26.5255,-82.0032,2.29,5.81,11111222 
SCCF RECON,ioos:station:SCCF:13:1,2019-05-15T07:00:00Z,26.5255,-82.0032,2.23,5.58,11111222 
SCCF RECON,ioos:station:SCCF:13:1,2019-05-15T08:00:00Z,26.5255,-82.0032,2.18,5.45,11111222 
SCCF RECON,ioos:station:SCCF:13:1,2019-05-15T09:00:00Z,26.5255,-82.0032,2.106,5.51,11111222 
SCCF RECON,ioos:station:SCCF:13:1,2019-05-15T10:00:00Z,26.5255,-82.0032,2.06,5.54,11111222 
SCCF RECON,ioos:station:SCCF:13:1,2019-05-15T11:00:00Z,26.5255,-82.0032,2.111,5.39,11111222 
SCCF RECON,ioos:station:SCCF:13:1,2019-05-15T12:00:00Z,26.5255,-82.0032,2.28,5.41,11111222 
SCCF RECON,ioos:station:SCCF:13:1,2019-05-15T13:00:00Z,26.5255,-82.0032,2.38,4.85,11111222 
SCCF RECON,ioos:station:SCCF:13:1,2019-05-15T14:00:00Z,26.5255,-82.0032,2.469,4.9,11111222 
SCCF RECON,ioos:station:SCCF:13:1,2019-05-15T15:00:00Z,26.5255,-82.0032,2.53,5.04,11111222 
SCCF RECON,ioos:station:SCCF:13:1,2019-05-15T16:00:00Z,26.5255,-82.0032,2.57,5.45,11111222 
SCCF RECON,ioos:station:SCCF:13:1,2019-05-15T17:00:00Z,26.5255,-82.0032,2.52,5.63,11111222 
SCCF RECON,ioos:station:SCCF:13:1,2019-05-15T18:00:00Z,26.5255,-82.0032,2.41,5.74,11111222 
SCCF RECON,ioos:station:SCCF:13:1,2019-05-15T19:00:00Z,26.5255,-82.0032,2.311,6.13,11111222 
SCCF RECON,ioos:station:SCCF:13:1,2019-05-15T20:00:00Z,26.5255,-82.0032,2.23,6.18,11111222 
SCCF RECON,ioos:station:SCCF:13:1,2019-05-15T21:00:00Z,26.5255,-82.0032,2.15,6.3,11111222 
SCCF RECON,ioos:station:SCCF:13:1,2019-05-15T22:00:00Z,26.5255,-82.0032,2.089,6.36,11111222 
SCCF RECON,ioos:station:SCCF:13:1,2019-05-15T23:00:00Z,26.5255,-82.0032,2.08,6.18,11111222 
SCCF RECON,ioos:station:SCCF:13:1,2019-05-16T04:00:00Z,26.5255,-82.0032,2.48,5.95,11111222 
SCCF RECON,ioos:station:SCCF:13:1,2019-05-16T05:00:00Z,26.5255,-82.0032,2.5,5.91,11111222 
SCCF RECON,ioos:station:SCCF:13:1,2019-05-16T06:00:00Z,26.5255,-82.0032,2.44,5.99,11111222 